User: anonymous   Login
Location: Robert Brownlee Observatory
(34.2308°N, 117.2089°W)
Time: 19:55:33
(UTC-07:00)
Language:

Cosmos 1943 - Orbit

View from above orbital plane
View from above orbital plane
View from above satellite
View from above satellite

Ground track
Ground track

The orbit data is extracted from the following two-line orbital elements,

1 19119U 88039A   15185.20979087  .00000211  00000-0  13357-3 0  9997
2 19119 071.0019 161.0592 0009698 058.5537 027.2550 14.15021625401092
Epoch (UTC): 04 July 2015 05:02:05
Eccentricity: 0.0009698
inclination: 71.0019°
perigee height: 835 km
apogee height: 849 km
right ascension of ascending node: 161.0592°
argument of perigee: 58.5537°
revolutions per day: 14.15021625
mean anomaly at epoch: 27.2550°
orbit number at epoch: 40109

The dashed part of the orbit path shows where the satellite is in the earth's shadow,  

DLR